User: anonymous   Login
Location: Unspecified
(0.0000°N, 0.0000°E)
Time: 09:12:47
(UTC+00:00)
Language:

COSMOS 2454 - Orbit

View from above orbital plane
View from above orbital plane
View from above satellite
View from above satellite

Ground track
Ground track

The orbit data is extracted from the following two-line orbital elements,

1 35635U 09039A   17082.21261781 +.00000015 +00000-0 -30378-6 0  9993
2 35635 082.9542 063.7141 0018616 183.5481 176.5555 13.89608926389116
Epoch (UTC): 23 March 2017 05:06:10
Eccentricity: 0.0018616
inclination: 82.9542°
perigee height: 916 km
apogee height: 943 km
right ascension of ascending node: 63.7141°
argument of perigee: 183.5481°
revolutions per day: 13.89608926
mean anomaly at epoch: 176.5555°
orbit number at epoch: 38911

The dashed part of the orbit path shows where the satellite is in the earth's shadow,  

DLR